Regional Weather Roundup
Issued by NWS Green Bay, WI

Home | Current Version | Previous Version | Graphics & Text | Print | Product List | Glossary Off
Versions: 1 2 3 4 5 6 7 8 9 10 11 12 13 14 15 16 17 18 19 20 21 22 23 24 25 26 27 28 29 30 31 32 33 34 35 36 37 38 39 40 41 42 43 44 45 46 47 48 49 50

000
ASUS43 KGRB 290959
RWRGRB

NORTH-CENTRAL AND NORTHEAST WISCONSIN REGIONAL WEATHER ROUNDUP
NATIONAL WEATHER SERVICE GREEN BAY WI
400 AM CST THU JAN 29 2015

WIZ005-009-010>012-018-019-291100-
NORTH CENTRAL WISCONSIN

CITY           SKY/WX    TMP DP  RH WIND       PRES   REMARKS
IRONWOOD       CLOUDY    28  27  93 NW10G20   29.77S
MANITOWISH WTR NOT AVBL
ARBOR VITAE    NOT AVBL
EAGLE RIVER    NOT AVBL
LAND O LAKES   NOT AVBL
RHINELANDER    CLOUDY    25  23  92 W5        29.76S FOG
PHILLIPS       NOT AVBL
ANTIGO         NOT AVBL
TOMAHAWK       NOT AVBL
MERRILL        NOT AVBL
$$

WIZ013-073-291100-
NORTHEAST WISCONSIN

CITY           SKY/WX    TMP DP  RH WIND       PRES   REMARKS
IRON MOUNTAIN  LGT SNOW  27  25  92 CALM      29.74F FOG
MARINETTE      CLOUDY    30  25  80 CALM      29.77F
$$

WIZ017-030-035>037-045-291100-
CENTRAL WISCONSIN

CITY           SKY/WX    TMP DP  RH WIND       PRES   REMARKS
MEDFORD        NOT AVBL
WAUSAU         CLOUDY    26  25  96 NW6       29.76F FOG
MOSINEE        NOT AVBL
MARSHFIELD     FOG       27  25  92 NW12      29.79R VSB 1
WISC RAPIDS    CLOUDY    27  24  89 NW5       29.80S FOG
STEVENS POINT  NOT AVBL
WAUPACA        NOT AVBL
SHAWANO        NOT AVBL
CLINTONVILLE   NOT AVBL
$$

WIZ038-039-048-051-291100-
FOX VALLEY

CITY           SKY/WX    TMP DP  RH WIND       PRES   REMARKS
NWS GREEN BAY  CLOUDY    30  25  81 CALM      29.77F HAZE
APPLETON       NOT AVBL
OSHKOSH        CLOUDY    30  25  81 CALM      29.75F HAZE
FOND DU LAC    CLOUDY    30  25  81 N5        29.74F
$$

WIZ022-050-052-291100-
EAST CENTRAL WISCONSIN

CITY           SKY/WX    TMP DP  RH WIND       PRES   REMARKS
STURGEON BAY   CLOUDY    32  25  74 W5        29.79S
MANITOWOC      NOT AVBL
SHEBOYGAN      CLOUDY    31  26  82 W5        29.75F
$$

LMZ563-521-522-541>543-291100-
LAKESHORE

STATION/POSITION TIME  TEMP    WIND        PRES    VSBY  WAVE
                       AIR SEA DIR/SP/G                  HT/PER
                 (UTC) (F)     (DEG/KT/KT) (MB)    (MI)  (FT/S)
SHEBOYGAN LKSHOR 0900   35     190/ 11/ 12 1008.8F
KEWAUNEE LKSHORE 0900   31     270/  2/  4 1007.7F
NORTHPORT PIER   0900   31     150/  4/  9 1008.8F
CHAMBERS ISLAND  0900   31     220/  3/  7 1008.8F
MENOMINEE LKSHOR 0900   31     220/  5     1009.1F
$$


USA.gov is the U.S. government's official web portal to all federal, state and local government web resources and services.